Irkutsk, Russia

9:09 AM +08 on May 25, 2018 (GMT +0800)
Irkutsk

Weather History for UIII - February, 2018

Change the Weather History Date:

Wednesday, February 14, 2018

  Actual Average (WUND) Record (WUND)
Temperature  
Mean Temperature -1 °F -  
Max Temperature 12 °F - - (-1)
Min Temperature -14 °F - - (-1)
Degree Days  
Heating Degree Days 66    
Moisture  
Dew Point -8 °F    
Average Humidity 74    
Maximum Humidity 85    
Minimum Humidity 46    
Precipitation  
Precipitation 0.00 in - - ()
Sea Level Pressure  
Sea Level Pressure 30.16 in    
Wind  
Wind Speed 4 mph ()    
Max Wind Speed 11 mph    
Max Gust Speed -    
Visibility 3.3 miles    
Events Snow    
Averages and records for this station are not official NWS values.
T = Trace of Precipitation, MM = Missing Value Source: Averaged Metar Reports

Daily Weather History Graph

Daily Weather History Graph

Search for Another Location

Airport or City:

Astronomy

Feb. 14, 2018 Rise Set
Actual Time 8:20 AM +08 6:13 PM +08
Civil Twilight 7:45 AM +08 6:48 PM +08
Nautical Twilight 7:05 AM +08 7:28 PM +08
Astronomical Twilight 6:26 AM +08 8:07 PM +08
Moon 7:33 AM +08 (2/14) 4:32 PM +08 (2/14)
Length of Visible Light 11h 03m
Length of Day
9h 52m
Waning Crescent, 3% of the Moon is Illuminated
Feb 14
Waning Crescent
Feb 16
New
Feb 23
First Quarter
Mar 2
Full
Mar 9
Last Quarter

Hourly Weather History & Observations

Time (+08) Temp. Windchill Dew Point Humidity Pressure Visibility Wind Dir Wind Speed Gust Speed Precip Events Conditions
12:00 AM -4.0 °F - -7.6 °F 85% 30.21 in - Calm Calm - N/A   Clear
12:30 AM -5.8 °F - -11.2 °F 77% 30.21 in - Variable 2.2 mph - N/A   Clear
1:00 AM -9.4 °F -24.0 °F -14.8 °F 77% 30.21 in - East 6.7 mph - N/A   Clear
1:30 AM -9.4 °F -24.0 °F -13.0 °F 84% 30.21 in - East 6.7 mph - N/A   Clear
2:00 AM -5 °F - -9 °F 76% 30.47 in - East 2.2 mph - -   Clear
2:00 AM -7.6 °F -21.9 °F -11.2 °F 84% 30.21 in - East 6.7 mph - N/A   Clear
2:30 AM -11.2 °F -22.7 °F -16.6 °F 77% 30.21 in - East 4.5 mph - N/A   Clear
3:00 AM -11.2 °F -26.2 °F -16.6 °F 77% 30.18 in - East 6.7 mph - N/A   Clear
3:30 AM -11.2 °F -22.7 °F -16.6 °F 77% 30.18 in - ESE 4.5 mph - N/A   Clear
4:00 AM -11.2 °F -22.7 °F -16.6 °F 77% 30.18 in - East 4.5 mph - N/A   Clear
4:30 AM -13.0 °F -24.8 °F -18.4 °F 77% 30.15 in - East 4.5 mph - N/A   Clear
5:00 AM -8 °F - -12 °F 72% 30.43 in - ESE 2.2 mph - -  
5:00 AM -13.0 °F -28.3 °F -18.4 °F 77% 30.15 in - East 6.7 mph - N/A   Clear
5:30 AM -13.0 °F -28.3 °F -18.4 °F 77% 30.15 in - East 6.7 mph - N/A   Clear
6:00 AM -13.0 °F -24.8 °F -16.6 °F 84% 30.15 in - East 4.5 mph - N/A   Clear
6:30 AM -13.0 °F -24.8 °F -18.4 °F 77% 30.12 in - East 4.5 mph - N/A   Clear
7:00 AM -13.0 °F -24.8 °F -18.4 °F 77% 30.12 in - ESE 4.5 mph - N/A   Clear
7:30 AM -14.8 °F -26.9 °F -18.4 °F 84% 30.12 in - East 4.5 mph - N/A   Clear
8:00 AM -10 °F - -14 °F 74% 30.40 in - ENE 2.2 mph - -   Mist
8:00 AM -13.0 °F - -18.4 °F 77% 30.12 in - Variable 2.2 mph - N/A   Clear
8:30 AM -14.8 °F -26.9 °F -20.2 °F 77% 30.12 in - NE 4.5 mph - N/A   Clear
9:00 AM -13.0 °F - -18.4 °F 77% 30.12 in - Variable 2.2 mph - N/A   Clear
9:30 AM -11.2 °F - -16.6 °F 77% 30.12 in - Calm Calm - N/A   Clear
10:00 AM -13.0 °F -24.8 °F -18.4 °F 77% 30.12 in - North 4.5 mph - N/A   Clear
10:30 AM -7.6 °F - -13.0 °F 77% 30.12 in - Variable 2.2 mph - N/A   Clear
11:00 AM -3 °F - -9 °F 62% 30.37 in 6 mi Calm Calm - -   Overcast
11:00 AM -9.4 °F -20.6 °F -13.0 °F 84% 30.12 in - North 4.5 mph - N/A   Clear
11:30 AM -4.0 °F - -9.4 °F 78% 30.09 in - Calm Calm - N/A   Clear
12:00 PM -2.2 °F - -5.8 °F 85% 30.09 in - Calm Calm - N/A   Clear
12:30 PM 1.4 °F - -4.0 °F 78% 30.09 in - Calm Calm - N/A   Clear
1:00 PM 6.8 °F - 3.2 °F 85% 30.09 in - Calm Calm - N/A   Clear
1:30 PM 3.2 °F - -2.2 °F 78% 30.06 in - Variable 2.2 mph - N/A   Clear
2:00 PM 8 °F - -1 °F 54% 30.28 in 2 mi North 4.5 mph - -   Smoke
2:00 PM 5.0 °F - -2.2 °F 72% 30.06 in - NNW 2.2 mph - N/A   Clear
2:30 PM 8.6 °F 0.3 °F -2.2 °F 62% 30.06 in - WNW 4.5 mph - N/A   Clear
3:00 PM 10.4 °F 2.4 °F -0.4 °F 62% 30.06 in 2.5 mi West 4.5 mph - N/A   Smoke
3:30 PM 10.4 °F -0.2 °F -0.4 °F 62% 30.06 in 3.1 mi WNW 6.7 mph - N/A   Smoke
4:00 PM 8.6 °F -2.4 °F -0.4 °F 67% 30.06 in - WNW 6.7 mph - N/A   Clear
4:30 PM 8.6 °F -4.4 °F -0.4 °F 67% 30.06 in - WNW 8.9 mph - N/A   Clear
5:00 PM 10 °F - -1 °F 46% 30.26 in 6 mi NNW 4.5 mph - -   Overcast
5:00 PM 8.6 °F -6.1 °F -0.4 °F 67% 30.06 in - WNW 11.2 mph - N/A   Clear
5:30 PM 6.8 °F -8.4 °F -0.4 °F 72% 30.06 in - WNW 11.2 mph - N/A   Clear
6:00 PM 6.8 °F -6.7 °F -2.2 °F 67% 30.06 in - WNW 8.9 mph - N/A   Clear
6:30 PM 6.8 °F -8.4 °F -2.2 °F 67% 30.09 in - NW 11.2 mph - N/A   Clear
7:00 PM 6.8 °F -4.6 °F -0.4 °F 72% 30.09 in - NW 6.7 mph - N/A   Clear
7:30 PM 6.8 °F -4.6 °F -2.2 °F 67% 30.09 in - WNW 6.7 mph - N/A   Clear
8:00 PM 8 °F - 0 °F 59% 30.32 in - NW 2.2 mph - -   Overcast
8:00 PM 6.8 °F -4.6 °F -0.4 °F 72% 30.12 in - WNW 6.7 mph - N/A   Clear
8:30 PM 6.8 °F -4.6 °F -0.4 °F 72% 30.12 in - WNW 6.7 mph - N/A   Clear
9:00 PM 8.6 °F 0.3 °F 1.4 °F 73% 30.12 in 3.1 mi WNW 4.5 mph - N/A Snow Light Snow
9:30 PM 8.6 °F 0.3 °F 1.4 °F 73% 30.15 in 2.2 mi WNW 4.5 mph - N/A Snow Light Snow
10:00 PM 6.8 °F -4.6 °F 1.4 °F 79% 30.15 in 1.5 mi WNW 6.7 mph - N/A Snow Light Snow
10:30 PM 8.6 °F -6.1 °F 3.2 °F 79% 30.15 in - NW 11.2 mph - N/A Snow Light Snow
11:00 PM 10 °F - 4 °F 68% 30.36 in - NW 6.7 mph - - Snow Light Snow Showers
11:00 PM 8.6 °F -6.1 °F 3.2 °F 79% 30.15 in - NW 11.2 mph - N/A Snow Light Snow
11:30 PM 6.8 °F -6.7 °F 3.2 °F 85% 30.18 in 3.1 mi NW 8.9 mph - N/A Snow Light Snow